sat.trackr.live / text

‹ back to catalog

ONEWEB-0156

NORAD 48052 · 2021-025L

PAYLOAD ACTIVE UNKNOWN

§ Identity

Operator
Country
UK
Launch date
2021-03-25
Launch site
VOSTO
Launch vehicle
Mass (kg)
RCS (m²)

Purposes: comms

External: N2YO · Heavens-Above · Gunter

§ Orbital elements

Epoch: 2026-09-20T02:40:44.031072Z

Period
109.63 min
Inclination
87.8924°
Eccentricity
0.0001793
Mean motion
13.13468538 rev/d
Perigee alt
1,208.4 km
Apogee alt
1,211.1 km
Semi-major
7,587.9 km
B*
4.9421e-4
RAAN
301.3377°
Arg perigee
98.1700°
Mean anomaly
261.9632°
Rev number
26,603

§ Raw data

ONEWEB-01561 48052U 21025L   26263.11162073  .00000193  00000+0  49421-3 0  99942 48052  87.8924 301.3377 0001793  98.1700 261.9632 13.13468538266036

JSON: /api/v1/satellites/48052 · /tle

For live sub-satellite position, see the globe view (requires WebGL).

§ Visibility from observer

Set your observer location to see the next 7 days of passes ≥ 10°. The values pass through the URL so the page stays shareable.

No JS? Fill the form by hand. The geolocation button needs JavaScript.